owner,sensor,date,latitude,longitude,air_temperature,qcFlag 
COMPS,ioos:station:USF.COMPS:ARP:1,2017-12-01T00:00:00Z,28.4330,-82.6670,20.45,1111122 
COMPS,ioos:station:USF.COMPS:ARP:1,2017-12-01T00:06:00Z,28.4330,-82.6670,20.33,1111122 
COMPS,ioos:station:USF.COMPS:ARP:1,2017-12-01T00:12:00Z,28.4330,-82.6670,20.2,1111122 
COMPS,ioos:station:USF.COMPS:ARP:1,2017-12-01T00:18:00Z,28.4330,-82.6670,20.06,1111122 
COMPS,ioos:station:USF.COMPS:ARP:1,2017-12-01T00:24:00Z,28.4330,-82.6670,19.94,1111122 
COMPS,ioos:station:USF.COMPS:ARP:1,2017-12-01T00:30:00Z,28.4330,-82.6670,19.84,1111122 
COMPS,ioos:station:USF.COMPS:ARP:1,2017-12-01T00:36:00Z,28.4330,-82.6670,19.7,1111122 
COMPS,ioos:station:USF.COMPS:ARP:1,2017-12-01T00:42:00Z,28.4330,-82.6670,19.47,1111122 
COMPS,ioos:station:USF.COMPS:ARP:1,2017-12-01T00:48:00Z,28.4330,-82.6670,19.31,1111122 
COMPS,ioos:station:USF.COMPS:ARP:1,2017-12-01T00:54:00Z,28.4330,-82.6670,19.58,1111122 
COMPS,ioos:station:USF.COMPS:ARP:1,2017-12-01T01:00:00Z,28.4330,-82.6670,19.38,1111122 
COMPS,ioos:station:USF.COMPS:ARP:1,2017-12-01T01:06:00Z,28.4330,-82.6670,19.28,1111122 
COMPS,ioos:station:USF.COMPS:ARP:1,2017-12-01T01:12:00Z,28.4330,-82.6670,19.26,1111122 
COMPS,ioos:station:USF.COMPS:ARP:1,2017-12-01T01:18:00Z,28.4330,-82.6670,19.3,1111122 
COMPS,ioos:station:USF.COMPS:ARP:1,2017-12-01T01:24:00Z,28.4330,-82.6670,19.41,1111122 
COMPS,ioos:station:USF.COMPS:ARP:1,2017-12-01T01:30:00Z,28.4330,-82.6670,19.52,1111122 
COMPS,ioos:station:USF.COMPS:ARP:1,2017-12-01T01:36:00Z,28.4330,-82.6670,19.47,1111122 
COMPS,ioos:station:USF.COMPS:ARP:1,2017-12-01T01:42:00Z,28.4330,-82.6670,19.5,1111122 
COMPS,ioos:station:USF.COMPS:ARP:1,2017-12-01T01:48:00Z,28.4330,-82.6670,19.52,1111122 
COMPS,ioos:station:USF.COMPS:ARP:1,2017-12-01T01:54:00Z,28.4330,-82.6670,19.82,1111122 
COMPS,ioos:station:USF.COMPS:ARP:1,2017-12-01T02:00:00Z,28.4330,-82.6670,19.59,1111122 
COMPS,ioos:station:USF.COMPS:ARP:1,2017-12-01T02:06:00Z,28.4330,-82.6670,19.49,1111122 
COMPS,ioos:station:USF.COMPS:ARP:1,2017-12-01T02:12:00Z,28.4330,-82.6670,19.46,1111122 
COMPS,ioos:station:USF.COMPS:ARP:1,2017-12-01T02:18:00Z,28.4330,-82.6670,19.46,1111122 
COMPS,ioos:station:USF.COMPS:ARP:1,2017-12-01T02:24:00Z,28.4330,-82.6670,19.19,1111122 
COMPS,ioos:station:USF.COMPS:ARP:1,2017-12-01T02:30:00Z,28.4330,-82.6670,19.16,1111122 
COMPS,ioos:station:USF.COMPS:ARP:1,2017-12-01T02:36:00Z,28.4330,-82.6670,19.16,1111122 
COMPS,ioos:station:USF.COMPS:ARP:1,2017-12-01T02:42:00Z,28.4330,-82.6670,19.06,1111122 
COMPS,ioos:station:USF.COMPS:ARP:1,2017-12-01T02:48:00Z,28.4330,-82.6670,18.88,1111122 
COMPS,ioos:station:USF.COMPS:ARP:1,2017-12-01T02:54:00Z,28.4330,-82.6670,18.92,1111122 
COMPS,ioos:station:USF.COMPS:ARP:1,2017-12-01T03:00:00Z,28.4330,-82.6670,18.63,1111122 
COMPS,ioos:station:USF.COMPS:ARP:1,2017-12-01T03:06:00Z,28.4330,-82.6670,18.4,1111122 
COMPS,ioos:station:USF.COMPS:ARP:1,2017-12-01T03:12:00Z,28.4330,-82.6670,18.16,1111122 
COMPS,ioos:station:USF.COMPS:ARP:1,2017-12-01T03:18:00Z,28.4330,-82.6670,17.98,1111122 
COMPS,ioos:station:USF.COMPS:ARP:1,2017-12-01T03:24:00Z,28.4330,-82.6670,17.92,1111122 
COMPS,ioos:station:USF.COMPS:ARP:1,2017-12-01T03:30:00Z,28.4330,-82.6670,17.78,1111122 
COMPS,ioos:station:USF.COMPS:ARP:1,2017-12-01T03:36:00Z,28.4330,-82.6670,17.67,1111122 
COMPS,ioos:station:USF.COMPS:ARP:1,2017-12-01T03:42:00Z,28.4330,-82.6670,17.57,1111122 
COMPS,ioos:station:USF.COMPS:ARP:1,2017-12-01T03:48:00Z,28.4330,-82.6670,17.45,1111122 
COMPS,ioos:station:USF.COMPS:ARP:1,2017-12-01T03:54:00Z,28.4330,-82.6670,17.54,1111122 
COMPS,ioos:station:USF.COMPS:ARP:1,2017-12-01T04:00:00Z,28.4330,-82.6670,17.36,1111122 
COMPS,ioos:station:USF.COMPS:ARP:1,2017-12-01T04:06:00Z,28.4330,-82.6670,17.18,1111122 
COMPS,ioos:station:USF.COMPS:ARP:1,2017-12-01T04:12:00Z,28.4330,-82.6670,17.32,1111122 
COMPS,ioos:station:USF.COMPS:ARP:1,2017-12-01T04:18:00Z,28.4330,-82.6670,17.38,1111122 
COMPS,ioos:station:USF.COMPS:ARP:1,2017-12-01T04:24:00Z,28.4330,-82.6670,17.42,1111122 
COMPS,ioos:station:USF.COMPS:ARP:1,2017-12-01T04:30:00Z,28.4330,-82.6670,17.59,1111122 
COMPS,ioos:station:USF.COMPS:ARP:1,2017-12-01T04:36:00Z,28.4330,-82.6670,17.74,1111122 
COMPS,ioos:station:USF.COMPS:ARP:1,2017-12-01T04:42:00Z,28.4330,-82.6670,17.73,1111122 
COMPS,ioos:station:USF.COMPS:ARP:1,2017-12-01T04:48:00Z,28.4330,-82.6670,17.54,1111122 
COMPS,ioos:station:USF.COMPS:ARP:1,2017-12-01T04:54:00Z,28.4330,-82.6670,17.81,1111122 
COMPS,ioos:station:USF.COMPS:ARP:1,2017-12-01T05:00:00Z,28.4330,-82.6670,17.5,1111122 
COMPS,ioos:station:USF.COMPS:ARP:1,2017-12-01T05:06:00Z,28.4330,-82.6670,17.37,1111122 
COMPS,ioos:station:USF.COMPS:ARP:1,2017-12-01T05:12:00Z,28.4330,-82.6670,17.64,1111122 
COMPS,ioos:station:USF.COMPS:ARP:1,2017-12-01T05:18:00Z,28.4330,-82.6670,17.52,1111122 
COMPS,ioos:station:USF.COMPS:ARP:1,2017-12-01T05:24:00Z,28.4330,-82.6670,17.39,1111122 
COMPS,ioos:station:USF.COMPS:ARP:1,2017-12-01T05:30:00Z,28.4330,-82.6670,17.27,1111122 
COMPS,ioos:station:USF.COMPS:ARP:1,2017-12-01T05:36:00Z,28.4330,-82.6670,17.25,1111122 
COMPS,ioos:station:USF.COMPS:ARP:1,2017-12-01T05:42:00Z,28.4330,-82.6670,17.05,1111122 
COMPS,ioos:station:USF.COMPS:ARP:1,2017-12-01T05:48:00Z,28.4330,-82.6670,16.97,1111122 
COMPS,ioos:station:USF.COMPS:ARP:1,2017-12-01T05:54:00Z,28.4330,-82.6670,17.0,1111122 
COMPS,ioos:station:USF.COMPS:ARP:1,2017-12-01T06:00:00Z,28.4330,-82.6670,16.72,1111122 
COMPS,ioos:station:USF.COMPS:ARP:1,2017-12-01T06:06:00Z,28.4330,-82.6670,16.58,1111122 
COMPS,ioos:station:USF.COMPS:ARP:1,2017-12-01T06:12:00Z,28.4330,-82.6670,16.41,1111122 
COMPS,ioos:station:USF.COMPS:ARP:1,2017-12-01T06:18:00Z,28.4330,-82.6670,16.29,1111122 
COMPS,ioos:station:USF.COMPS:ARP:1,2017-12-01T06:24:00Z,28.4330,-82.6670,16.28,1111122 
COMPS,ioos:station:USF.COMPS:ARP:1,2017-12-01T06:30:00Z,28.4330,-82.6670,16.28,1111122 
COMPS,ioos:station:USF.COMPS:ARP:1,2017-12-01T06:36:00Z,28.4330,-82.6670,16.44,1111122 
COMPS,ioos:station:USF.COMPS:ARP:1,2017-12-01T06:42:00Z,28.4330,-82.6670,16.43,1111122 
COMPS,ioos:station:USF.COMPS:ARP:1,2017-12-01T06:48:00Z,28.4330,-82.6670,16.33,1111122 
COMPS,ioos:station:USF.COMPS:ARP:1,2017-12-01T06:54:00Z,28.4330,-82.6670,16.49,1111122 
COMPS,ioos:station:USF.COMPS:ARP:1,2017-12-01T07:00:00Z,28.4330,-82.6670,16.3,1111122 
COMPS,ioos:station:USF.COMPS:ARP:1,2017-12-01T07:06:00Z,28.4330,-82.6670,16.13,1111122 
COMPS,ioos:station:USF.COMPS:ARP:1,2017-12-01T07:12:00Z,28.4330,-82.6670,16.09,1111122 
COMPS,ioos:station:USF.COMPS:ARP:1,2017-12-01T07:18:00Z,28.4330,-82.6670,16.17,1111122 
COMPS,ioos:station:USF.COMPS:ARP:1,2017-12-01T07:24:00Z,28.4330,-82.6670,16.08,1111122 
COMPS,ioos:station:USF.COMPS:ARP:1,2017-12-01T07:30:00Z,28.4330,-82.6670,15.89,1111122 
COMPS,ioos:station:USF.COMPS:ARP:1,2017-12-01T07:36:00Z,28.4330,-82.6670,16.02,1111122 
COMPS,ioos:station:USF.COMPS:ARP:1,2017-12-01T07:42:00Z,28.4330,-82.6670,16.03,1111122 
COMPS,ioos:station:USF.COMPS:ARP:1,2017-12-01T07:48:00Z,28.4330,-82.6670,16.09,1111122 
COMPS,ioos:station:USF.COMPS:ARP:1,2017-12-01T07:54:00Z,28.4330,-82.6670,16.22,1111122 
COMPS,ioos:station:USF.COMPS:ARP:1,2017-12-01T08:00:00Z,28.4330,-82.6670,15.94,1111122 
COMPS,ioos:station:USF.COMPS:ARP:1,2017-12-01T08:06:00Z,28.4330,-82.6670,15.88,1111122 
COMPS,ioos:station:USF.COMPS:ARP:1,2017-12-01T08:12:00Z,28.4330,-82.6670,15.83,1111122 
COMPS,ioos:station:USF.COMPS:ARP:1,2017-12-01T08:18:00Z,28.4330,-82.6670,15.75,1111122 
COMPS,ioos:station:USF.COMPS:ARP:1,2017-12-01T08:24:00Z,28.4330,-82.6670,15.8,1111122 
COMPS,ioos:station:USF.COMPS:ARP:1,2017-12-01T08:30:00Z,28.4330,-82.6670,15.98,1111122 
COMPS,ioos:station:USF.COMPS:ARP:1,2017-12-01T08:36:00Z,28.4330,-82.6670,15.84,1111122 
COMPS,ioos:station:USF.COMPS:ARP:1,2017-12-01T08:42:00Z,28.4330,-82.6670,15.8,1111122 
COMPS,ioos:station:USF.COMPS:ARP:1,2017-12-01T08:48:00Z,28.4330,-82.6670,15.91,1111122 
COMPS,ioos:station:USF.COMPS:ARP:1,2017-12-01T08:54:00Z,28.4330,-82.6670,16.06,1111122 
COMPS,ioos:station:USF.COMPS:ARP:1,2017-12-01T09:00:00Z,28.4330,-82.6670,15.99,1111122 
COMPS,ioos:station:USF.COMPS:ARP:1,2017-12-01T09:06:00Z,28.4330,-82.6670,15.81,1111122 
COMPS,ioos:station:USF.COMPS:ARP:1,2017-12-01T09:12:00Z,28.4330,-82.6670,15.66,1111122 
COMPS,ioos:station:USF.COMPS:ARP:1,2017-12-01T09:18:00Z,28.4330,-82.6670,15.68,1111122 
COMPS,ioos:station:USF.COMPS:ARP:1,2017-12-01T09:24:00Z,28.4330,-82.6670,15.82,1111122 
COMPS,ioos:station:USF.COMPS:ARP:1,2017-12-01T09:30:00Z,28.4330,-82.6670,16.04,1111122 
COMPS,ioos:station:USF.COMPS:ARP:1,2017-12-01T09:36:00Z,28.4330,-82.6670,16.21,1111122 
COMPS,ioos:station:USF.COMPS:ARP:1,2017-12-01T09:42:00Z,28.4330,-82.6670,16.01,1111122 
COMPS,ioos:station:USF.COMPS:ARP:1,2017-12-01T09:48:00Z,28.4330,-82.6670,15.66,1111122 
COMPS,ioos:station:USF.COMPS:ARP:1,2017-12-01T09:54:00Z,28.4330,-82.6670,15.81,1111122 
COMPS,ioos:station:USF.COMPS:ARP:1,2017-12-01T10:00:00Z,28.4330,-82.6670,15.64,1111122 
COMPS,ioos:station:USF.COMPS:ARP:1,2017-12-01T10:06:00Z,28.4330,-82.6670,15.3,1111122 
COMPS,ioos:station:USF.COMPS:ARP:1,2017-12-01T10:12:00Z,28.4330,-82.6670,15.12,1111122 
COMPS,ioos:station:USF.COMPS:ARP:1,2017-12-01T10:18:00Z,28.4330,-82.6670,15.14,1111122 
COMPS,ioos:station:USF.COMPS:ARP:1,2017-12-01T10:24:00Z,28.4330,-82.6670,15.16,1111122 
COMPS,ioos:station:USF.COMPS:ARP:1,2017-12-01T10:30:00Z,28.4330,-82.6670,14.85,1111122 
COMPS,ioos:station:USF.COMPS:ARP:1,2017-12-01T10:36:00Z,28.4330,-82.6670,14.76,1111122 
COMPS,ioos:station:USF.COMPS:ARP:1,2017-12-01T10:42:00Z,28.4330,-82.6670,14.8,1111122 
COMPS,ioos:station:USF.COMPS:ARP:1,2017-12-01T10:48:00Z,28.4330,-82.6670,14.81,1111122 
COMPS,ioos:station:USF.COMPS:ARP:1,2017-12-01T10:54:00Z,28.4330,-82.6670,14.93,1111122 
COMPS,ioos:station:USF.COMPS:ARP:1,2017-12-01T11:00:00Z,28.4330,-82.6670,14.87,1111122 
COMPS,ioos:station:USF.COMPS:ARP:1,2017-12-01T11:06:00Z,28.4330,-82.6670,14.94,1111122 
COMPS,ioos:station:USF.COMPS:ARP:1,2017-12-01T11:12:00Z,28.4330,-82.6670,14.93,1111122 
COMPS,ioos:station:USF.COMPS:ARP:1,2017-12-01T11:18:00Z,28.4330,-82.6670,15.0,1111122 
COMPS,ioos:station:USF.COMPS:ARP:1,2017-12-01T11:24:00Z,28.4330,-82.6670,15.02,1111122 
COMPS,ioos:station:USF.COMPS:ARP:1,2017-12-01T11:30:00Z,28.4330,-82.6670,15.04,1111122 
COMPS,ioos:station:USF.COMPS:ARP:1,2017-12-01T11:36:00Z,28.4330,-82.6670,14.94,1111122 
COMPS,ioos:station:USF.COMPS:ARP:1,2017-12-01T11:42:00Z,28.4330,-82.6670,15.52,1111122 
COMPS,ioos:station:USF.COMPS:ARP:1,2017-12-01T11:48:00Z,28.4330,-82.6670,15.61,1111122 
COMPS,ioos:station:USF.COMPS:ARP:1,2017-12-01T11:54:00Z,28.4330,-82.6670,15.77,1111122 
COMPS,ioos:station:USF.COMPS:ARP:1,2017-12-01T12:00:00Z,28.4330,-82.6670,16.12,1111122 
COMPS,ioos:station:USF.COMPS:ARP:1,2017-12-01T12:06:00Z,28.4330,-82.6670,16.23,1111122 
COMPS,ioos:station:USF.COMPS:ARP:1,2017-12-01T12:12:00Z,28.4330,-82.6670,16.07,1111122 
COMPS,ioos:station:USF.COMPS:ARP:1,2017-12-01T12:18:00Z,28.4330,-82.6670,16.13,1111122 
COMPS,ioos:station:USF.COMPS:ARP:1,2017-12-01T12:24:00Z,28.4330,-82.6670,15.96,1111122 
COMPS,ioos:station:USF.COMPS:ARP:1,2017-12-01T12:30:00Z,28.4330,-82.6670,16.0,1111122 
COMPS,ioos:station:USF.COMPS:ARP:1,2017-12-01T12:36:00Z,28.4330,-82.6670,16.06,1111122 
COMPS,ioos:station:USF.COMPS:ARP:1,2017-12-01T12:42:00Z,28.4330,-82.6670,16.2,1111122 
COMPS,ioos:station:USF.COMPS:ARP:1,2017-12-01T12:48:00Z,28.4330,-82.6670,16.36,1111122 
COMPS,ioos:station:USF.COMPS:ARP:1,2017-12-01T12:54:00Z,28.4330,-82.6670,16.79,1111122 
COMPS,ioos:station:USF.COMPS:ARP:1,2017-12-01T13:00:00Z,28.4330,-82.6670,16.71,1111122 
COMPS,ioos:station:USF.COMPS:ARP:1,2017-12-01T13:06:00Z,28.4330,-82.6670,16.84,1111122 
COMPS,ioos:station:USF.COMPS:ARP:1,2017-12-01T13:12:00Z,28.4330,-82.6670,17.01,1111122 
COMPS,ioos:station:USF.COMPS:ARP:1,2017-12-01T13:18:00Z,28.4330,-82.6670,17.16,1111122 
COMPS,ioos:station:USF.COMPS:ARP:1,2017-12-01T13:24:00Z,28.4330,-82.6670,17.57,1111122 
COMPS,ioos:station:USF.COMPS:ARP:1,2017-12-01T13:30:00Z,28.4330,-82.6670,18.06,1111122 
COMPS,ioos:station:USF.COMPS:ARP:1,2017-12-01T13:36:00Z,28.4330,-82.6670,18.21,1111122 
COMPS,ioos:station:USF.COMPS:ARP:1,2017-12-01T13:42:00Z,28.4330,-82.6670,18.23,1111122 
COMPS,ioos:station:USF.COMPS:ARP:1,2017-12-01T13:48:00Z,28.4330,-82.6670,18.51,1111122 
COMPS,ioos:station:USF.COMPS:ARP:1,2017-12-01T13:54:00Z,28.4330,-82.6670,19.05,1111122 
COMPS,ioos:station:USF.COMPS:ARP:1,2017-12-01T14:00:00Z,28.4330,-82.6670,19.27,1111122 
COMPS,ioos:station:USF.COMPS:ARP:1,2017-12-01T14:06:00Z,28.4330,-82.6670,19.74,1111122 
COMPS,ioos:station:USF.COMPS:ARP:1,2017-12-01T14:12:00Z,28.4330,-82.6670,19.42,1111122 
COMPS,ioos:station:USF.COMPS:ARP:1,2017-12-01T14:18:00Z,28.4330,-82.6670,20.06,1111122 
COMPS,ioos:station:USF.COMPS:ARP:1,2017-12-01T14:24:00Z,28.4330,-82.6670,20.72,1111122 
COMPS,ioos:station:USF.COMPS:ARP:1,2017-12-01T14:30:00Z,28.4330,-82.6670,20.74,1111122 
COMPS,ioos:station:USF.COMPS:ARP:1,2017-12-01T14:36:00Z,28.4330,-82.6670,20.86,1111122 
COMPS,ioos:station:USF.COMPS:ARP:1,2017-12-01T14:42:00Z,28.4330,-82.6670,20.87,1111122 
COMPS,ioos:station:USF.COMPS:ARP:1,2017-12-01T14:48:00Z,28.4330,-82.6670,20.75,1111122 
COMPS,ioos:station:USF.COMPS:ARP:1,2017-12-01T14:54:00Z,28.4330,-82.6670,20.67,1111122 
COMPS,ioos:station:USF.COMPS:ARP:1,2017-12-01T15:00:00Z,28.4330,-82.6670,20.57,1111122 
COMPS,ioos:station:USF.COMPS:ARP:1,2017-12-01T15:06:00Z,28.4330,-82.6670,20.6,1111122 
COMPS,ioos:station:USF.COMPS:ARP:1,2017-12-01T15:12:00Z,28.4330,-82.6670,20.84,1111122 
COMPS,ioos:station:USF.COMPS:ARP:1,2017-12-01T15:18:00Z,28.4330,-82.6670,21.55,1111122 
COMPS,ioos:station:USF.COMPS:ARP:1,2017-12-01T15:24:00Z,28.4330,-82.6670,21.98,1111122 
COMPS,ioos:station:USF.COMPS:ARP:1,2017-12-01T15:30:00Z,28.4330,-82.6670,21.54,1111122 
COMPS,ioos:station:USF.COMPS:ARP:1,2017-12-01T15:36:00Z,28.4330,-82.6670,21.83,1111122 
COMPS,ioos:station:USF.COMPS:ARP:1,2017-12-01T15:42:00Z,28.4330,-82.6670,20.99,1111122 
COMPS,ioos:station:USF.COMPS:ARP:1,2017-12-01T15:48:00Z,28.4330,-82.6670,20.9,1111122 
COMPS,ioos:station:USF.COMPS:ARP:1,2017-12-01T15:54:00Z,28.4330,-82.6670,20.94,1111122 
COMPS,ioos:station:USF.COMPS:ARP:1,2017-12-01T16:00:00Z,28.4330,-82.6670,20.89,1111122 
COMPS,ioos:station:USF.COMPS:ARP:1,2017-12-01T16:06:00Z,28.4330,-82.6670,21.22,1111122 
COMPS,ioos:station:USF.COMPS:ARP:1,2017-12-01T16:12:00Z,28.4330,-82.6670,22.31,1111122 
COMPS,ioos:station:USF.COMPS:ARP:1,2017-12-01T16:18:00Z,28.4330,-82.6670,21.9,1111122 
COMPS,ioos:station:USF.COMPS:ARP:1,2017-12-01T16:24:00Z,28.4330,-82.6670,21.82,1111122 
COMPS,ioos:station:USF.COMPS:ARP:1,2017-12-01T16:30:00Z,28.4330,-82.6670,22.48,1111122 
COMPS,ioos:station:USF.COMPS:ARP:1,2017-12-01T16:36:00Z,28.4330,-82.6670,22.72,1111122 
COMPS,ioos:station:USF.COMPS:ARP:1,2017-12-01T16:42:00Z,28.4330,-82.6670,22.93,1111122 
COMPS,ioos:station:USF.COMPS:ARP:1,2017-12-01T16:48:00Z,28.4330,-82.6670,22.9,1111122 
COMPS,ioos:station:USF.COMPS:ARP:1,2017-12-01T16:54:00Z,28.4330,-82.6670,22.85,1111122 
COMPS,ioos:station:USF.COMPS:ARP:1,2017-12-01T17:00:00Z,28.4330,-82.6670,22.66,1111122 
COMPS,ioos:station:USF.COMPS:ARP:1,2017-12-01T17:06:00Z,28.4330,-82.6670,22.79,1111122 
COMPS,ioos:station:USF.COMPS:ARP:1,2017-12-01T17:12:00Z,28.4330,-82.6670,23.14,1111122 
COMPS,ioos:station:USF.COMPS:ARP:1,2017-12-01T17:18:00Z,28.4330,-82.6670,22.67,1111122 
COMPS,ioos:station:USF.COMPS:ARP:1,2017-12-01T17:24:00Z,28.4330,-82.6670,23.08,1111122 
COMPS,ioos:station:USF.COMPS:ARP:1,2017-12-01T17:30:00Z,28.4330,-82.6670,22.7,1111122 
COMPS,ioos:station:USF.COMPS:ARP:1,2017-12-01T17:36:00Z,28.4330,-82.6670,23.26,1111122 
COMPS,ioos:station:USF.COMPS:ARP:1,2017-12-01T17:42:00Z,28.4330,-82.6670,23.21,1111122 
COMPS,ioos:station:USF.COMPS:ARP:1,2017-12-01T17:48:00Z,28.4330,-82.6670,23.38,1111122 
COMPS,ioos:station:USF.COMPS:ARP:1,2017-12-01T17:54:00Z,28.4330,-82.6670,23.75,1111122 
COMPS,ioos:station:USF.COMPS:ARP:1,2017-12-01T18:00:00Z,28.4330,-82.6670,23.55,1111122 
COMPS,ioos:station:USF.COMPS:ARP:1,2017-12-01T18:06:00Z,28.4330,-82.6670,23.51,1111122 
COMPS,ioos:station:USF.COMPS:ARP:1,2017-12-01T18:12:00Z,28.4330,-82.6670,23.35,1111122 
COMPS,ioos:station:USF.COMPS:ARP:1,2017-12-01T18:18:00Z,28.4330,-82.6670,23.8,1111122 
COMPS,ioos:station:USF.COMPS:ARP:1,2017-12-01T18:24:00Z,28.4330,-82.6670,23.76,1111122 
COMPS,ioos:station:USF.COMPS:ARP:1,2017-12-01T18:30:00Z,28.4330,-82.6670,23.56,1111122 
COMPS,ioos:station:USF.COMPS:ARP:1,2017-12-01T18:36:00Z,28.4330,-82.6670,23.53,1111122 
COMPS,ioos:station:USF.COMPS:ARP:1,2017-12-01T18:42:00Z,28.4330,-82.6670,23.22,1111122 
COMPS,ioos:station:USF.COMPS:ARP:1,2017-12-01T18:48:00Z,28.4330,-82.6670,23.23,1111122 
COMPS,ioos:station:USF.COMPS:ARP:1,2017-12-01T18:54:00Z,28.4330,-82.6670,23.63,1111122 
COMPS,ioos:station:USF.COMPS:ARP:1,2017-12-01T19:00:00Z,28.4330,-82.6670,23.4,1111122 
COMPS,ioos:station:USF.COMPS:ARP:1,2017-12-01T19:06:00Z,28.4330,-82.6670,23.07,1111122 
COMPS,ioos:station:USF.COMPS:ARP:1,2017-12-01T19:12:00Z,28.4330,-82.6670,23.81,1111122 
COMPS,ioos:station:USF.COMPS:ARP:1,2017-12-01T19:18:00Z,28.4330,-82.6670,23.96,1111122 
COMPS,ioos:station:USF.COMPS:ARP:1,2017-12-01T19:24:00Z,28.4330,-82.6670,23.72,1111122 
COMPS,ioos:station:USF.COMPS:ARP:1,2017-12-01T19:30:00Z,28.4330,-82.6670,23.59,1111122 
COMPS,ioos:station:USF.COMPS:ARP:1,2017-12-01T19:36:00Z,28.4330,-82.6670,23.57,1111122 
COMPS,ioos:station:USF.COMPS:ARP:1,2017-12-01T19:42:00Z,28.4330,-82.6670,23.47,1111122 
COMPS,ioos:station:USF.COMPS:ARP:1,2017-12-01T19:48:00Z,28.4330,-82.6670,23.55,1111122 
COMPS,ioos:station:USF.COMPS:ARP:1,2017-12-01T19:54:00Z,28.4330,-82.6670,23.62,1111122 
COMPS,ioos:station:USF.COMPS:ARP:1,2017-12-01T20:00:00Z,28.4330,-82.6670,23.43,1111122 
COMPS,ioos:station:USF.COMPS:ARP:1,2017-12-01T20:06:00Z,28.4330,-82.6670,23.77,1111122 
COMPS,ioos:station:USF.COMPS:ARP:1,2017-12-01T20:12:00Z,28.4330,-82.6670,23.79,1111122 
COMPS,ioos:station:USF.COMPS:ARP:1,2017-12-01T20:18:00Z,28.4330,-82.6670,23.59,1111122 
COMPS,ioos:station:USF.COMPS:ARP:1,2017-12-01T20:24:00Z,28.4330,-82.6670,23.74,1111122 
COMPS,ioos:station:USF.COMPS:ARP:1,2017-12-01T20:30:00Z,28.4330,-82.6670,23.8,1111122 
COMPS,ioos:station:USF.COMPS:ARP:1,2017-12-01T20:36:00Z,28.4330,-82.6670,23.95,1111122 
COMPS,ioos:station:USF.COMPS:ARP:1,2017-12-01T20:42:00Z,28.4330,-82.6670,24.04,1111122 
COMPS,ioos:station:USF.COMPS:ARP:1,2017-12-01T20:48:00Z,28.4330,-82.6670,23.96,1111122 
COMPS,ioos:station:USF.COMPS:ARP:1,2017-12-01T20:54:00Z,28.4330,-82.6670,23.97,1111122 
COMPS,ioos:station:USF.COMPS:ARP:1,2017-12-01T21:00:00Z,28.4330,-82.6670,23.7,1111122 
COMPS,ioos:station:USF.COMPS:ARP:1,2017-12-01T21:06:00Z,28.4330,-82.6670,23.84,1111122 
COMPS,ioos:station:USF.COMPS:ARP:1,2017-12-01T21:12:00Z,28.4330,-82.6670,23.71,1111122 
COMPS,ioos:station:USF.COMPS:ARP:1,2017-12-01T21:18:00Z,28.4330,-82.6670,23.7,1111122 
COMPS,ioos:station:USF.COMPS:ARP:1,2017-12-01T21:24:00Z,28.4330,-82.6670,23.35,1111122 
COMPS,ioos:station:USF.COMPS:ARP:1,2017-12-01T21:30:00Z,28.4330,-82.6670,23.35,1111122 
COMPS,ioos:station:USF.COMPS:ARP:1,2017-12-01T21:36:00Z,28.4330,-82.6670,23.26,1111122 
COMPS,ioos:station:USF.COMPS:ARP:1,2017-12-01T21:42:00Z,28.4330,-82.6670,22.92,1111122 
COMPS,ioos:station:USF.COMPS:ARP:1,2017-12-01T21:48:00Z,28.4330,-82.6670,22.6,1111122 
COMPS,ioos:station:USF.COMPS:ARP:1,2017-12-01T21:54:00Z,28.4330,-82.6670,22.6,1111122 
COMPS,ioos:station:USF.COMPS:ARP:1,2017-12-01T22:00:00Z,28.4330,-82.6670,22.37,1111122 
COMPS,ioos:station:USF.COMPS:ARP:1,2017-12-01T22:06:00Z,28.4330,-82.6670,22.32,1111122 
COMPS,ioos:station:USF.COMPS:ARP:1,2017-12-01T22:12:00Z,28.4330,-82.6670,21.92,1111122 
COMPS,ioos:station:USF.COMPS:ARP:1,2017-12-01T22:18:00Z,28.4330,-82.6670,21.78,1111122 
COMPS,ioos:station:USF.COMPS:ARP:1,2017-12-01T22:24:00Z,28.4330,-82.6670,21.66,1111122 
COMPS,ioos:station:USF.COMPS:ARP:1,2017-12-01T22:30:00Z,28.4330,-82.6670,21.56,1111122 
COMPS,ioos:station:USF.COMPS:ARP:1,2017-12-01T22:36:00Z,28.4330,-82.6670,21.37,1111122 
COMPS,ioos:station:USF.COMPS:ARP:1,2017-12-01T22:42:00Z,28.4330,-82.6670,21.27,1111122 
COMPS,ioos:station:USF.COMPS:ARP:1,2017-12-01T22:48:00Z,28.4330,-82.6670,21.2,1111122 
COMPS,ioos:station:USF.COMPS:ARP:1,2017-12-01T22:54:00Z,28.4330,-82.6670,21.3,1111122 
COMPS,ioos:station:USF.COMPS:ARP:1,2017-12-01T23:00:00Z,28.4330,-82.6670,21.09,1111122 
COMPS,ioos:station:USF.COMPS:ARP:1,2017-12-01T23:06:00Z,28.4330,-82.6670,20.95,1111122 
COMPS,ioos:station:USF.COMPS:ARP:1,2017-12-01T23:12:00Z,28.4330,-82.6670,20.82,1111122 
COMPS,ioos:station:USF.COMPS:ARP:1,2017-12-01T23:18:00Z,28.4330,-82.6670,20.71,1111122 
COMPS,ioos:station:USF.COMPS:ARP:1,2017-12-01T23:24:00Z,28.4330,-82.6670,20.64,1111122 
COMPS,ioos:station:USF.COMPS:ARP:1,2017-12-01T23:30:00Z,28.4330,-82.6670,20.57,1111122 
COMPS,ioos:station:USF.COMPS:ARP:1,2017-12-01T23:36:00Z,28.4330,-82.6670,20.57,1111122 
COMPS,ioos:station:USF.COMPS:ARP:1,2017-12-01T23:42:00Z,28.4330,-82.6670,20.57,1111122 
COMPS,ioos:station:USF.COMPS:ARP:1,2017-12-01T23:48:00Z,28.4330,-82.6670,20.51,1111122 
COMPS,ioos:station:USF.COMPS:ARP:1,2017-12-01T23:54:00Z,28.4330,-82.6670,20.52,1111122 
COMPS,ioos:station:USF.COMPS:ARP:1,2017-12-02T00:00:00Z,28.4330,-82.6670,20.21,1111122 
COMPS,ioos:station:USF.COMPS:ARP:1,2017-12-02T00:06:00Z,28.4330,-82.6670,20.04,1111122 
COMPS,ioos:station:USF.COMPS:ARP:1,2017-12-02T00:12:00Z,28.4330,-82.6670,19.86,1111122 
COMPS,ioos:station:USF.COMPS:ARP:1,2017-12-02T00:18:00Z,28.4330,-82.6670,19.76,1111122 
COMPS,ioos:station:USF.COMPS:ARP:1,2017-12-02T00:24:00Z,28.4330,-82.6670,19.64,1111122 
COMPS,ioos:station:USF.COMPS:ARP:1,2017-12-02T00:30:00Z,28.4330,-82.6670,19.52,1111122 
COMPS,ioos:station:USF.COMPS:ARP:1,2017-12-02T00:36:00Z,28.4330,-82.6670,19.39,1111122 
COMPS,ioos:station:USF.COMPS:ARP:1,2017-12-02T00:42:00Z,28.4330,-82.6670,19.27,1111122 
COMPS,ioos:station:USF.COMPS:ARP:1,2017-12-02T00:48:00Z,28.4330,-82.6670,19.13,1111122 
COMPS,ioos:station:USF.COMPS:ARP:1,2017-12-02T00:54:00Z,28.4330,-82.6670,19.21,1111122 
COMPS,ioos:station:USF.COMPS:ARP:1,2017-12-02T01:00:00Z,28.4330,-82.6670,18.99,1111122 
COMPS,ioos:station:USF.COMPS:ARP:1,2017-12-02T01:06:00Z,28.4330,-82.6670,18.9,1111122 
COMPS,ioos:station:USF.COMPS:ARP:1,2017-12-02T01:12:00Z,28.4330,-82.6670,18.84,1111122 
COMPS,ioos:station:USF.COMPS:ARP:1,2017-12-02T01:18:00Z,28.4330,-82.6670,18.72,1111122 
COMPS,ioos:station:USF.COMPS:ARP:1,2017-12-02T01:24:00Z,28.4330,-82.6670,18.65,1111122 
COMPS,ioos:station:USF.COMPS:ARP:1,2017-12-02T01:30:00Z,28.4330,-82.6670,18.54,1111122 
COMPS,ioos:station:USF.COMPS:ARP:1,2017-12-02T01:36:00Z,28.4330,-82.6670,18.43,1111122 
COMPS,ioos:station:USF.COMPS:ARP:1,2017-12-02T01:42:00Z,28.4330,-82.6670,18.43,1111122 
COMPS,ioos:station:USF.COMPS:ARP:1,2017-12-02T01:48:00Z,28.4330,-82.6670,18.38,1111122 
COMPS,ioos:station:USF.COMPS:ARP:1,2017-12-02T01:54:00Z,28.4330,-82.6670,18.47,1111122 
COMPS,ioos:station:USF.COMPS:ARP:1,2017-12-02T02:00:00Z,28.4330,-82.6670,18.26,1111122 
COMPS,ioos:station:USF.COMPS:ARP:1,2017-12-02T02:06:00Z,28.4330,-82.6670,18.23,1111122 
COMPS,ioos:station:USF.COMPS:ARP:1,2017-12-02T02:12:00Z,28.4330,-82.6670,18.32,1111122 
COMPS,ioos:station:USF.COMPS:ARP:1,2017-12-02T02:18:00Z,28.4330,-82.6670,18.3,1111122 
COMPS,ioos:station:USF.COMPS:ARP:1,2017-12-02T02:24:00Z,28.4330,-82.6670,18.34,1111122 
COMPS,ioos:station:USF.COMPS:ARP:1,2017-12-02T02:30:00Z,28.4330,-82.6670,18.32,1111122 
COMPS,ioos:station:USF.COMPS:ARP:1,2017-12-02T02:36:00Z,28.4330,-82.6670,18.39,1111122 
COMPS,ioos:station:USF.COMPS:ARP:1,2017-12-02T02:42:00Z,28.4330,-82.6670,18.49,1111122 
COMPS,ioos:station:USF.COMPS:ARP:1,2017-12-02T02:48:00Z,28.4330,-82.6670,18.59,1111122 
COMPS,ioos:station:USF.COMPS:ARP:1,2017-12-02T02:54:00Z,28.4330,-82.6670,18.86,1111122 
COMPS,ioos:station:USF.COMPS:ARP:1,2017-12-02T03:00:00Z,28.4330,-82.6670,18.74,1111122 
COMPS,ioos:station:USF.COMPS:ARP:1,2017-12-02T03:06:00Z,28.4330,-82.6670,18.93,1111122 